User: anonymous
Location: Harbor Island
(32.3990°N, 80.4435°W)
Time: 22:21:32
(UTC-04:00)
Language:

Cosmos 1455 - Orbit

View from above orbital plane
View from above orbital plane
View from above satellite
View from above satellite

Ground track
Ground track

The orbit data is extracted from the following two-line orbital elements,

1 14032U 83037A   14274.46714243  .00005391  00000-0  31279-3 0  6507
2 14032 082.5216 341.8642 0021121 108.4497 018.9047 15.11763978711505
Epoch (UTC): 01 October 2014 11:12:41
Eccentricity: 0.0021121
inclination: 82.5216°
perigee height: 516 km
apogee height: 545 km
right ascension of ascending node: 341.8642°
argument of perigee: 108.4497°
revolutions per day: 15.11763978
mean anomaly at epoch: 18.9047°
orbit number at epoch: 71150

The dashed part of the orbit path shows where the satellite is in the earth's shadow,  

DLR